カタログに戻る

COSMOS 2251 DEB

運用中LEO
NORAD 34614·DEBRIS·🇷🇺 Russia

打ち上げ Jun 16, 1993 から Plesetsk Cosmodrome

Loading…

次のパス (今後24時間)

TLE

最新Source: Space-Track

元期: Sep 14, 2026, 07:04 UTC

1 34614U 93036WK  26257.29457881  .00004370  00000-0  16756-2 0  9996
2 34614  73.8745 205.5480 0179913 150.3716 359.8146 14.22303828886798

AllMySatでCOSMOS 2251 DEBをリアルタイム追跡

Download on the App Store